| time (UTC) | temp F | wind direction | speed MPH | gust MPH | rain 1hr in | rain 24hr in | rain mn in | humidity % | barometer mb |
| 20260906073604 | 61 | 9 | 0.0 | 0.0 | 0.00 | 0.07 | 0.00 | 86 | 1016.0 |
| 20260906073104 | 61 | 9 | 0.0 | 0.0 | 0.00 | 0.07 | 0.00 | 86 | 1016.0 |
| 20260906072103 | 61 | 9 | 0.0 | 0.0 | 0.00 | 0.07 | 0.00 | 86 | 1016.0 |
| 20260906071603 | 61 | 9 | 0.0 | 0.0 | 0.00 | 0.07 | 0.00 | 86 | 1016.0 |
| 20260906070603 | 61 | 9 | 0.0 | 0.0 | 0.00 | 0.07 | 0.00 | 85 | 1015.8 |
| 20260906070103 | 61 | 9 | 0.0 | 0.0 | 0.00 | 0.07 | 0.00 | 85 | 1015.6 |
| 20260906065603 | 61 | 9 | 0.0 | 0.0 | 0.00 | 0.07 | 0.00 | 85 | 1015.6 |
| 20260906065104 | 61 | 9 | 0.0 | 0.0 | 0.00 | 0.07 | 0.00 | 84 | 1015.6 |
| 20260906064604 | 61 | 9 | 0.0 | 0.0 | 0.00 | 0.07 | 0.00 | 84 | 1015.7 |
| 20260906064104 | 62 | 9 | 0.0 | 0.0 | 0.00 | 0.07 | 0.00 | 84 | 1015.8 |
| 20260906063605 | 62 | 9 | 0.0 | 0.0 | 0.00 | 0.07 | 0.00 | 84 | 1015.8 |
| 20260906063104 | 62 | 9 | 0.0 | 0.0 | 0.00 | 0.07 | 0.00 | 84 | 1015.6 |
| 20260906062604 | 62 | 9 | 0.0 | 0.0 | 0.00 | 0.07 | 0.00 | 84 | 1015.6 |
| 20260906062104 | 62 | 9 | 0.0 | 0.0 | 0.00 | 0.07 | 0.00 | 83 | 1015.5 |
| 20260906061604 | 62 | 9 | 0.0 | 0.0 | 0.00 | 0.07 | 0.00 | 83 | 1015.6 |
| 20260906061105 | 62 | 9 | 0.0 | 0.0 | 0.00 | 0.07 | 0.00 | 83 | 1015.6 |
| 20260906060605 | 62 | 9 | 0.0 | 0.0 | 0.00 | 0.07 | 0.00 | 83 | 1015.5 |
| 20260906055604 | 62 | 9 | 0.0 | 0.0 | 0.00 | 0.08 | 0.00 | 82 | 1015.8 |
| 20260906054604 | 63 | 9 | 0.0 | 0.0 | 0.00 | 0.08 | 0.00 | 82 | 1015.6 |
| 20260906054104 | 63 | 9 | 0.0 | 0.0 | 0.00 | 0.08 | 0.00 | 81 | 1015.8 |
| 20260906053607 | 63 | 9 | 0.0 | 0.0 | 0.00 | 0.08 | 0.00 | 81 | 1015.7 |
| 20260906053105 | 63 | 9 | 0.0 | 0.0 | 0.00 | 0.08 | 0.00 | 81 | 1015.6 |
| 20260906052604 | 63 | 9 | 0.0 | 0.0 | 0.00 | 0.08 | 0.00 | 81 | 1015.6 |
| 20260906052104 | 64 | 9 | 0.0 | 0.0 | 0.00 | 0.08 | 0.00 | 80 | 1015.7 |
| 20260906051605 | 64 | 9 | 0.0 | 0.0 | 0.00 | 0.08 | 0.00 | 80 | 1015.9 |
| 20260906051105 | 64 | 9 | 0.0 | 0.0 | 0.00 | 0.08 | 0.00 | 80 | 1015.9 |
| 20260906050605 | 64 | 9 | 0.0 | 0.0 | 0.00 | 0.08 | 0.00 | 79 | 1016.0 |
| 20260906050105 | 64 | 9 | 0.0 | 0.0 | 0.00 | 0.08 | 0.00 | 79 | 1015.9 |
| 20260906045104 | 65 | 9 | 0.0 | 0.0 | 0.00 | 0.08 | 0.00 | 78 | 1015.8 |
| 20260906044604 | 65 | 9 | 0.0 | 0.0 | 0.00 | 0.08 | 0.00 | 77 | 1015.8 |
| 20260906043105 | 65 | 9 | 0.0 | 0.0 | 0.01 | 0.08 | 0.00 | 76 | 1015.7 |
| 20260906042604 | 66 | 9 | 0.0 | 0.0 | 0.01 | 0.08 | 0.00 | 76 | 1015.7 |
| 20260906042104 | 66 | 9 | 0.0 | 0.0 | 0.01 | 0.08 | 0.00 | 76 | 1015.6 |
| 20260906041604 | 66 | 9 | 0.0 | 0.0 | 0.01 | 0.08 | 0.00 | 76 | 1015.6 |
| 20260906041104 | 66 | 9 | 0.0 | 0.0 | 0.01 | 0.08 | 0.00 | 76 | 1015.7 |
| 20260906040105 | 66 | 9 | 0.0 | 0.0 | 0.01 | 0.08 | 0.00 | 75 | 1015.5 |
| 20260906035604 | 67 | 9 | 0.0 | 0.0 | 0.01 | 0.09 | 0.08 | 75 | 1015.6 |
| 20260906034604 | 67 | 13 | 0.0 | 0.0 | 0.01 | 0.09 | 0.08 | 74 | 1015.8 |
| 20260906034104 | 67 | 13 | 0.0 | 0.0 | 0.01 | 0.09 | 0.08 | 74 | 1015.7 |
| 20260906033604 | 67 | 13 | 0.0 | 0.0 | 0.00 | 0.08 | 0.07 | 74 | 1015.6 |
| 20260906033104 | 67 | 13 | 0.0 | 0.0 | 0.00 | 0.08 | 0.07 | 74 | 1015.6 |
| 20260906032605 | 68 | 13 | 0.0 | 0.0 | 0.00 | 0.08 | 0.07 | 73 | 1015.5 |
| 20260906032105 | 68 | 13 | 0.0 | 0.0 | 0.00 | 0.08 | 0.07 | 73 | 1015.6 |
| 20260906031604 | 68 | 13 | 0.0 | 0.0 | 0.00 | 0.08 | 0.07 | 73 | 1015.5 |
| 20260906031104 | 68 | 13 | 0.0 | 0.0 | 0.00 | 0.08 | 0.07 | 72 | 1015.5 |
| 20260906030605 | 68 | 13 | 0.0 | 0.0 | 0.00 | 0.08 | 0.07 | 72 | 1015.4 |
| 20260906024604 | 69 | 13 | 0.0 | 0.0 | 0.00 | 0.08 | 0.07 | 70 | 1015.4 |
| 20260906024104 | 69 | 13 | 0.0 | 0.0 | 0.00 | 0.08 | 0.07 | 70 | 1015.4 |
| 20260906023605 | 69 | 13 | 0.0 | 0.0 | 0.00 | 0.08 | 0.07 | 70 | 1015.4 |
| 20260906023105 | 69 | 16 | 0.0 | 0.0 | 0.00 | 0.08 | 0.07 | 69 | 1015.4 |
| 20260906022604 | 69 | 16 | 0.0 | 0.0 | 0.00 | 0.08 | 0.07 | 69 | 1015.4 |
| 20260906022105 | 69 | 9 | 0.0 | 0.0 | 0.00 | 0.08 | 0.07 | 69 | 1015.4 |
| 20260906021607 | 69 | 9 | 0.0 | 0.0 | 0.00 | 0.08 | 0.07 | 69 | 1015.4 |
| 20260906021104 | 69 | 9 | 0.0 | 0.0 | 0.00 | 0.08 | 0.07 | 68 | 1015.4 |
| 20260906020604 | 70 | 9 | 0.0 | 0.0 | 0.00 | 0.08 | 0.07 | 68 | 1015.3 |
| 20260906015605 | 70 | 44 | 0.0 | 0.0 | 0.00 | 0.08 | 0.07 | 68 | 1015.2 |
| 20260906015104 | 70 | 27 | 0.0 | 0.0 | 0.00 | 0.08 | 0.07 | 68 | 1015.2 |
| 20260906014605 | 70 | 28 | 0.0 | 0.0 | 0.00 | 0.08 | 0.07 | 68 | 1015.2 |
| 20260906014104 | 70 | 28 | 0.0 | 0.0 | 0.00 | 0.08 | 0.07 | 68 | 1015.1 |
| 20260906013604 | 71 | 28 | 0.0 | 0.0 | 0.00 | 0.08 | 0.07 | 68 | 1015.0 |
| 20260906013104 | 71 | 28 | 0.0 | 0.0 | 0.00 | 0.08 | 0.07 | 68 | 1014.9 |
| 20260906012604 | 71 | 28 | 0.0 | 0.0 | 0.00 | 0.08 | 0.07 | 68 | 1014.9 |
| 20260906012104 | 71 | 28 | 0.0 | 0.0 | 0.00 | 0.08 | 0.07 | 68 | 1014.8 |
| 20260906011105 | 71 | 319 | 0.0 | 0.0 | 0.00 | 0.08 | 0.07 | 67 | 1014.7 |
| 20260906010605 | 72 | 319 | 0.0 | 0.0 | 0.00 | 0.08 | 0.07 | 67 | 1014.5 |
| 20260906010104 | 72 | 227 | 0.0 | 0.0 | 0.00 | 0.09 | 0.07 | 66 | 1014.6 |
| 20260906005604 | 72 | 217 | 0.0 | 0.0 | 0.00 | 0.09 | 0.07 | 66 | 1014.5 |
| 20260906005104 | 72 | 217 | 0.0 | 0.0 | 0.00 | 0.09 | 0.07 | 66 | 1014.4 |
| 20260906004605 | 73 | 217 | 0.0 | 0.0 | 0.00 | 0.09 | 0.07 | 65 | 1014.4 |
| 20260906004105 | 73 | 217 | 0.0 | 0.0 | 0.00 | 0.09 | 0.07 | 65 | 1014.3 |
| 20260906003604 | 73 | 217 | 0.0 | 0.0 | 0.00 | 0.09 | 0.07 | 64 | 1014.2 |
| 20260906003104 | 74 | 217 | 0.0 | 0.0 | 0.00 | 0.09 | 0.07 | 64 | 1014.0 |
| 20260906002104 | 74 | 217 | 0.0 | 0.0 | 0.00 | 0.09 | 0.07 | 63 | 1013.9 |
| 20260906001604 | 74 | 213 | 0.0 | 0.0 | 0.00 | 0.09 | 0.07 | 62 | 1013.9 |
| 20260906001104 | 75 | 217 | 0.0 | 0.0 | 0.00 | 0.09 | 0.07 | 62 | 1013.9 |
| 20260906000604 | 75 | 217 | 0.0 | 0.0 | 0.00 | 0.09 | 0.07 | 62 | 1014.0 |
| 20260906000104 | 75 | 217 | 0.0 | 0.0 | 0.00 | 0.09 | 0.07 | 61 | 1014.0 |
| 20260905235604 | 76 | 217 | 0.0 | 0.0 | 0.00 | 0.09 | 0.07 | 61 | 1014.0 |
| 20260905235104 | 76 | 218 | 0.0 | 0.0 | 0.00 | 0.09 | 0.07 | 60 | 1013.9 |
| 20260905234604 | 76 | 218 | 0.0 | 0.0 | 0.00 | 0.10 | 0.07 | 59 | 1013.9 |
| 20260905233604 | 77 | 217 | 0.0 | 0.0 | 0.01 | 0.10 | 0.07 | 58 | 1013.9 |
| 20260905233104 | 78 | 217 | 0.0 | 0.0 | 0.01 | 0.10 | 0.07 | 58 | 1013.9 |
| 20260905232605 | 78 | 217 | 0.0 | 0.0 | 0.01 | 0.10 | 0.07 | 56 | 1013.9 |
| 20260905232104 | 78 | 159 | 0.0 | 0.0 | 0.01 | 0.10 | 0.07 | 55 | 1013.9 |
| 20260905231604 | 78 | 160 | 0.0 | 0.0 | 0.01 | 0.10 | 0.07 | 55 | 1013.8 |
| 20260905230604 | 79 | 312 | 0.0 | 0.0 | 0.01 | 0.10 | 0.07 | 55 | 1013.8 |
| 20260905225104 | 79 | 32 | 0.0 | 0.0 | 0.01 | 0.10 | 0.07 | 54 | 1013.6 |
| 20260905224605 | 79 | 24 | 0.0 | 0.0 | 0.01 | 0.10 | 0.07 | 58 | 1013.4 |
| 20260905224104 | 79 | 31 | 0.0 | 0.0 | 0.00 | 0.09 | 0.06 | 57 | 1013.3 |
| 20260905223604 | 79 | 31 | 0.0 | 0.0 | 0.00 | 0.09 | 0.06 | 59 | 1013.3 |
| 20260905223104 | 79 | 32 | 0.0 | 0.0 | 0.00 | 0.09 | 0.06 | 60 | 1013.3 |
| 20260905221604 | 80 | 327 | 0.0 | 0.0 | 0.00 | 0.09 | 0.06 | 59 | 1013.3 |
| 20260905221104 | 80 | 36 | 0.0 | 0.0 | 0.00 | 0.09 | 0.06 | 59 | 1013.3 |
| 20260905220604 | 80 | 11 | 0.0 | 0.0 | 0.00 | 0.09 | 0.06 | 59 | 1013.3 |
| 20260905220104 | 81 | 34 | 0.0 | 0.0 | 0.00 | 0.09 | 0.06 | 59 | 1013.3 |
| 20260905215105 | 82 | 199 | 0.0 | 0.0 | 0.00 | 0.10 | 0.06 | 57 | 1013.3 |
| 20260905214604 | 82 | 132 | 0.0 | 0.0 | 0.00 | 0.10 | 0.06 | 57 | 1013.2 |
| 20260905214104 | 82 | 32 | 0.0 | 0.0 | 0.00 | 0.10 | 0.06 | 58 | 1013.2 |
| 20260905213604 | 83 | 32 | 0.0 | 0.0 | 0.01 | 0.10 | 0.06 | 57 | 1013.2 |
| 20260905213104 | 83 | 51 | 0.0 | 0.0 | 0.01 | 0.10 | 0.06 | 56 | 1013.1 |
| 20260905212604 | 83 | 158 | 0.0 | 0.0 | 0.01 | 0.10 | 0.06 | 55 | 1013.1 |
| 20260905212104 | 83 | 113 | 0.0 | 0.0 | 0.01 | 0.10 | 0.06 | 56 | 1013.2 |
| 20260905211604 | 83 | 61 | 0.0 | 2.0 | 0.01 | 0.10 | 0.06 | 56 | 1013.1 |
| 20260905211104 | 83 | 108 | 2.0 | 7.0 | 0.01 | 0.10 | 0.06 | 57 | 1013.1 |
| 20260905210604 | 83 | 330 | 2.0 | 5.0 | 0.01 | 0.11 | 0.06 | 56 | 1013.2 |
| 20260905210105 | 83 | 120 | 1.0 | 5.0 | 0.01 | 0.11 | 0.06 | 56 | 1013.2 |
| 20260905205604 | 83 | 64 | 1.0 | 6.0 | 0.01 | 0.11 | 0.06 | 57 | 1013.2 |
| 20260905204605 | 83 | 0 | 1.0 | 2.0 | 0.01 | 0.11 | 0.06 | 60 | 1013.2 |
| 20260905204104 | 82 | 14 | 1.0 | 3.0 | 0.01 | 0.11 | 0.06 | 60 | 1013.2 |
| 20260905203604 | 82 | 173 | 1.0 | 2.0 | 0.00 | 0.10 | 0.05 | 61 | 1013.2 |
| 20260905203104 | 81 | 19 | 1.0 | 3.0 | 0.00 | 0.10 | 0.05 | 61 | 1013.2 |
| 20260905201604 | 80 | 161 | 0.0 | 5.0 | 0.00 | 0.10 | 0.05 | 61 | 1013.3 |
| 20260905201105 | 79 | 7 | 0.0 | 0.0 | 0.00 | 0.10 | 0.05 | 62 | 1013.5 |
| 20260905200104 | 79 | 79 | 0.0 | 0.0 | 0.00 | 0.11 | 0.05 | 63 | 1013.6 |
| 20260905194605 | 79 | 83 | 0.0 | 0.0 | 0.00 | 0.11 | 0.05 | 62 | 1013.7 |
| 20260905194104 | 80 | 94 | 0.0 | 0.0 | 0.00 | 0.11 | 0.05 | 63 | 1013.7 |
| 20260905193604 | 80 | 110 | 0.0 | 0.0 | 0.00 | 0.11 | 0.05 | 62 | 1013.6 |
| 20260905193104 | 80 | 52 | 0.0 | 0.0 | 0.00 | 0.11 | 0.05 | 62 | 1013.7 |
| 20260905192604 | 80 | 7 | 0.0 | 0.0 | 0.00 | 0.11 | 0.05 | 63 | 1013.7 |
| 20260905191604 | 80 | 317 | 0.0 | 0.0 | 0.00 | 0.12 | 0.05 | 61 | 1013.8 |
| 20260905191104 | 80 | 78 | 0.0 | 0.0 | 0.00 | 0.12 | 0.05 | 60 | 1013.8 |
| 20260905190604 | 80 | 346 | 0.0 | 0.0 | 0.00 | 0.12 | 0.05 | 61 | 1013.8 |
| 20260905190105 | 80 | 93 | 0.0 | 0.0 | 0.00 | 0.12 | 0.05 | 61 | 1013.8 |
| 20260905185604 | 80 | 334 | 0.0 | 0.0 | 0.01 | 0.12 | 0.05 | 63 | 1013.8 |
| 20260905185104 | 80 | 190 | 0.0 | 0.0 | 0.01 | 0.12 | 0.05 | 64 | 1013.8 |
| 20260905184604 | 81 | 96 | 0.0 | 0.0 | 0.01 | 0.12 | 0.05 | 64 | 1013.8 |
| 20260905184104 | 81 | 163 | 0.0 | 0.0 | 0.01 | 0.12 | 0.05 | 64 | 1013.9 |
| 20260905183604 | 80 | 113 | 0.0 | 0.0 | 0.01 | 0.12 | 0.05 | 62 | 1013.8 |
| 20260905183104 | 80 | 134 | 0.0 | 0.0 | 0.01 | 0.13 | 0.05 | 61 | 1013.8 |
| 20260905182604 | 81 | 34 | 0.0 | 0.0 | 0.01 | 0.13 | 0.05 | 62 | 1013.8 |
| 20260905182104 | 80 | 97 | 0.0 | 0.0 | 0.01 | 0.13 | 0.05 | 64 | 1013.8 |
| 20260905181104 | 80 | 35 | 0.0 | 0.0 | 0.01 | 0.13 | 0.05 | 65 | 1013.9 |
| 20260905180604 | 80 | 72 | 0.0 | 0.0 | 0.01 | 0.13 | 0.05 | 66 | 1013.8 |
| 20260905180104 | 79 | 218 | 0.0 | 0.0 | 0.01 | 0.14 | 0.05 | 68 | 1013.9 |
| 20260905175604 | 79 | 34 | 0.0 | 0.0 | 0.00 | 0.13 | 0.04 | 69 | 1013.9 |
| 20260905175104 | 78 | 32 | 0.0 | 0.0 | 0.00 | 0.13 | 0.04 | 69 | 1013.9 |
| 20260905174605 | 78 | 19 | 0.0 | 0.0 | 0.00 | 0.13 | 0.04 | 70 | 1013.9 |
| 20260905174104 | 78 | 14 | 0.0 | 0.0 | 0.00 | 0.13 | 0.04 | 72 | 1013.9 |
| 20260905173604 | 78 | 41 | 0.0 | 0.0 | 0.00 | 0.13 | 0.04 | 73 | 1013.8 |
| 20260905172604 | 77 | 35 | 0.0 | 0.0 | 0.00 | 0.13 | 0.04 | 75 | 1013.8 |
| 20260905172104 | 77 | 5 | 0.0 | 0.0 | 0.00 | 0.13 | 0.04 | 75 | 1013.8 |
| 20260905171104 | 77 | 0 | 0.0 | 0.0 | 0.00 | 0.14 | 0.04 | 76 | 1014.0 |
| 20260905170604 | 77 | 0 | 0.0 | 0.0 | 0.00 | 0.14 | 0.04 | 78 | 1014.2 |
| 20260905170104 | 77 | 114 | 0.0 | 0.0 | 0.01 | 0.14 | 0.04 | 79 | 1014.3 |
| 20260905165604 | 77 | 143 | 0.0 | 0.0 | 0.01 | 0.14 | 0.04 | 80 | 1014.3 |
| 20260905165104 | 76 | 87 | 0.0 | 0.0 | 0.01 | 0.14 | 0.04 | 82 | 1014.3 |
| 20260905164604 | 76 | 75 | 0.0 | 0.0 | 0.01 | 0.14 | 0.04 | 83 | 1014.3 |
| 20260905163604 | 75 | 110 | 0.0 | 0.0 | 0.01 | 0.15 | 0.04 | 87 | 1014.1 |
| 20260905163104 | 75 | 19 | 0.0 | 0.0 | 0.01 | 0.15 | 0.04 | 89 | 1014.1 |
| 20260905162104 | 74 | 39 | 0.0 | 0.0 | 0.01 | 0.15 | 0.04 | 91 | 1014.1 |
| 20260905161604 | 74 | 8 | 0.0 | 0.0 | 0.01 | 0.15 | 0.04 | 92 | 1014.0 |
| 20260905161106 | 74 | 349 | 0.0 | 0.0 | 0.01 | 0.15 | 0.04 | 93 | 1014.0 |
| 20260905160604 | 73 | 119 | 0.0 | 0.0 | 0.01 | 0.15 | 0.04 | 93 | 1014.1 |
| 20260905160104 | 73 | 24 | 0.0 | 0.0 | 0.00 | 0.14 | 0.03 | 94 | 1014.1 |
| 20260905155604 | 73 | 18 | 0.0 | 0.0 | 0.00 | 0.15 | 0.03 | 94 | 1013.9 |
| 20260905154604 | 73 | 347 | 0.0 | 0.0 | 0.00 | 0.15 | 0.03 | 94 | 1013.9 |
| 20260905154104 | 72 | 196 | 0.0 | 0.0 | 0.00 | 0.15 | 0.03 | 94 | 1013.9 |
| 20260905153604 | 72 | 130 | 0.0 | 0.0 | 0.00 | 0.15 | 0.03 | 94 | 1013.9 |
| 20260905153104 | 72 | 36 | 0.0 | 0.0 | 0.00 | 0.15 | 0.03 | 94 | 1014.0 |
| 20260905152604 | 72 | 36 | 0.0 | 0.0 | 0.00 | 0.16 | 0.03 | 94 | 1014.0 |
| 20260905152104 | 72 | 35 | 0.0 | 0.0 | 0.00 | 0.16 | 0.03 | 94 | 1014.0 |
| 20260905151604 | 72 | 32 | 0.0 | 0.0 | 0.00 | 0.16 | 0.03 | 94 | 1013.9 |
| 20260905150604 | 72 | 27 | 0.0 | 0.0 | 0.00 | 0.16 | 0.03 | 94 | 1013.8 |
| 20260905150104 | 72 | 27 | 0.0 | 0.0 | 0.00 | 0.16 | 0.03 | 94 | 1013.8 |
| 20260905145604 | 71 | 26 | 0.0 | 0.0 | 0.00 | 0.16 | 0.03 | 94 | 1013.8 |
| 20260905145104 | 71 | 28 | 0.0 | 0.0 | 0.00 | 0.16 | 0.03 | 94 | 1013.7 |
| 20260905144603 | 71 | 26 | 0.0 | 0.0 | 0.00 | 0.17 | 0.03 | 94 | 1013.5 |
| 20260905144104 | 71 | 27 | 0.0 | 0.0 | 0.00 | 0.17 | 0.03 | 94 | 1013.5 |
| 20260905143604 | 71 | 27 | 0.0 | 0.0 | 0.00 | 0.17 | 0.03 | 94 | 1013.4 |
| 20260905143104 | 71 | 120 | 0.0 | 0.0 | 0.00 | 0.17 | 0.03 | 94 | 1013.4 |
| 20260905142604 | 71 | 119 | 0.0 | 0.0 | 0.00 | 0.18 | 0.03 | 94 | 1013.3 |
| 20260905142103 | 71 | 117 | 0.0 | 0.0 | 0.00 | 0.18 | 0.03 | 94 | 1013.3 |
| 20260905141604 | 71 | 122 | 0.0 | 0.0 | 0.00 | 0.18 | 0.03 | 94 | 1013.3 |
| 20260905141103 | 71 | 123 | 0.0 | 0.0 | 0.00 | 0.18 | 0.03 | 94 | 1013.3 |
| 20260905140604 | 70 | 123 | 0.0 | 0.0 | 0.00 | 0.18 | 0.03 | 94 | 1013.3 |
| 20260905140104 | 70 | 128 | 0.0 | 0.0 | 0.00 | 0.19 | 0.03 | 94 | 1013.3 |
| 20260905135604 | 70 | 128 | 0.0 | 0.0 | 0.00 | 0.19 | 0.03 | 94 | 1013.3 |
| 20260905135104 | 70 | 128 | 0.0 | 0.0 | 0.00 | 0.19 | 0.03 | 94 | 1013.3 |
| 20260905134604 | 69 | 128 | 0.0 | 0.0 | 0.00 | 0.19 | 0.03 | 94 | 1013.3 |
| 20260905134104 | 69 | 128 | 0.0 | 0.0 | 0.01 | 0.20 | 0.03 | 94 | 1013.3 |
| 20260905133104 | 69 | 128 | 0.0 | 0.0 | 0.01 | 0.20 | 0.03 | 94 | 1013.4 |
| 20260905132604 | 69 | 128 | 0.0 | 0.0 | 0.01 | 0.20 | 0.03 | 94 | 1013.4 |
| 20260905132104 | 69 | 128 | 0.0 | 0.0 | 0.01 | 0.20 | 0.03 | 94 | 1013.4 |
| 20260905131603 | 69 | 128 | 0.0 | 0.0 | 0.01 | 0.20 | 0.03 | 94 | 1013.5 |
| 20260905130604 | 69 | 128 | 0.0 | 0.0 | 0.01 | 0.21 | 0.03 | 93 | 1013.5 |
| 20260905125604 | 69 | 128 | 0.0 | 0.0 | 0.01 | 0.21 | 0.03 | 93 | 1013.5 |
| 20260905125104 | 69 | 128 | 0.0 | 0.0 | 0.01 | 0.21 | 0.03 | 94 | 1013.5 |
| 20260905124603 | 69 | 128 | 0.0 | 0.0 | 0.01 | 0.21 | 0.03 | 94 | 1013.6 |
| 20260905124104 | 68 | 128 | 0.0 | 0.0 | 0.00 | 0.21 | 0.02 | 93 | 1013.7 |
| 20260905123604 | 68 | 128 | 0.0 | 0.0 | 0.00 | 0.21 | 0.02 | 93 | 1013.5 |
| 20260905123104 | 68 | 128 | 0.0 | 0.0 | 0.00 | 0.21 | 0.02 | 93 | 1013.4 |
| 20260905122604 | 68 | 128 | 0.0 | 0.0 | 0.00 | 0.21 | 0.02 | 93 | 1013.3 |
| 20260905122103 | 68 | 128 | 0.0 | 0.0 | 0.00 | 0.21 | 0.02 | 93 | 1013.3 |
| 20260905121604 | 69 | 128 | 0.0 | 0.0 | 0.00 | 0.21 | 0.02 | 93 | 1013.3 |
| 20260905121104 | 69 | 128 | 0.0 | 0.0 | 0.00 | 0.21 | 0.02 | 93 | 1013.3 |
| 20260905120604 | 69 | 128 | 0.0 | 0.0 | 0.00 | 0.21 | 0.02 | 93 | 1013.4 |
| 20260905120104 | 69 | 128 | 0.0 | 0.0 | 0.00 | 0.21 | 0.02 | 93 | 1013.4 |
| 20260905115604 | 69 | 128 | 0.0 | 0.0 | 0.00 | 0.21 | 0.02 | 93 | 1013.4 |
| 20260905115104 | 69 | 128 | 0.0 | 0.0 | 0.00 | 0.22 | 0.02 | 93 | 1013.4 |
| 20260905114603 | 69 | 128 | 0.0 | 0.0 | 0.00 | 0.22 | 0.02 | 93 | 1013.4 |
| 20260905114105 | 69 | 128 | 0.0 | 0.0 | 0.00 | 0.22 | 0.02 | 93 | 1013.4 |
| 20260905113603 | 69 | 128 | 0.0 | 0.0 | 0.00 | 0.22 | 0.02 | 93 | 1013.4 |
| 20260905113104 | 69 | 128 | 0.0 | 0.0 | 0.00 | 0.22 | 0.02 | 93 | 1013.3 |
| 20260905112603 | 69 | 124 | 0.0 | 0.0 | 0.00 | 0.22 | 0.02 | 93 | 1013.3 |
| 20260905112103 | 69 | 127 | 0.0 | 0.0 | 0.00 | 0.23 | 0.02 | 93 | 1013.2 |
| 20260905111104 | 69 | 128 | 0.0 | 0.0 | 0.00 | 0.23 | 0.02 | 93 | 1013.1 |
| 20260905110603 | 69 | 130 | 0.0 | 0.0 | 0.00 | 0.23 | 0.02 | 93 | 1013.1 |
| 20260905110104 | 69 | 130 | 0.0 | 0.0 | 0.00 | 0.23 | 0.02 | 93 | 1013.0 |
| 20260905105604 | 70 | 130 | 0.0 | 0.0 | 0.00 | 0.23 | 0.02 | 93 | 1012.8 |
| 20260905105104 | 70 | 130 | 0.0 | 0.0 | 0.01 | 0.23 | 0.02 | 93 | 1012.8 |
| 20260905104604 | 70 | 130 | 0.0 | 0.0 | 0.01 | 0.23 | 0.02 | 93 | 1012.8 |
| 20260905104104 | 70 | 130 | 0.0 | 0.0 | 0.01 | 0.23 | 0.02 | 93 | 1012.8 |
| 20260905103604 | 70 | 130 | 0.0 | 0.0 | 0.01 | 0.23 | 0.02 | 93 | 1012.9 |
| 20260905102604 | 70 | 130 | 0.0 | 0.0 | 0.01 | 0.23 | 0.02 | 93 | 1012.8 |
| 20260905102103 | 70 | 130 | 0.0 | 0.0 | 0.01 | 0.23 | 0.02 | 93 | 1012.8 |
| 20260905101603 | 70 | 130 | 0.0 | 0.0 | 0.01 | 0.23 | 0.02 | 93 | 1012.8 |
| 20260905101104 | 70 | 130 | 0.0 | 0.0 | 0.01 | 0.23 | 0.02 | 93 | 1012.7 |
| 20260905100604 | 70 | 130 | 0.0 | 0.0 | 0.01 | 0.23 | 0.02 | 93 | 1012.9 |
| 20260905100104 | 70 | 130 | 0.0 | 0.0 | 0.01 | 0.23 | 0.02 | 93 | 1012.8 |
| 20260905095604 | 70 | 130 | 0.0 | 0.0 | 0.01 | 0.23 | 0.02 | 93 | 1012.8 |
| 20260905095104 | 70 | 130 | 0.0 | 0.0 | 0.00 | 0.22 | 0.01 | 93 | 1013.0 |
| 20260905094603 | 70 | 130 | 0.0 | 0.0 | 0.00 | 0.22 | 0.01 | 93 | 1013.1 |
| 20260905094104 | 70 | 130 | 0.0 | 0.0 | 0.00 | 0.22 | 0.01 | 93 | 1013.0 |
| 20260905093604 | 70 | 130 | 0.0 | 0.0 | 0.00 | 0.22 | 0.01 | 93 | 1013.0 |
| 20260905093103 | 71 | 130 | 0.0 | 0.0 | 0.00 | 0.22 | 0.01 | 93 | 1012.8 |
| 20260905092604 | 71 | 130 | 0.0 | 0.0 | 0.00 | 0.22 | 0.01 | 93 | 1012.7 |
| 20260905092103 | 71 | 130 | 0.0 | 0.0 | 0.00 | 0.22 | 0.01 | 93 | 1012.6 |
| 20260905091603 | 71 | 130 | 0.0 | 0.0 | 0.00 | 0.22 | 0.01 | 93 | 1012.7 |
| 20260905091103 | 71 | 130 | 0.0 | 0.0 | 0.00 | 0.22 | 0.01 | 93 | 1012.9 |
| 20260905090604 | 71 | 130 | 0.0 | 0.0 | 0.00 | 0.22 | 0.01 | 93 | 1012.8 |
| 20260905090104 | 71 | 130 | 0.0 | 0.0 | 0.00 | 0.22 | 0.01 | 93 | 1012.8 |
| 20260905085104 | 71 | 130 | 0.0 | 0.0 | 0.00 | 0.22 | 0.01 | 93 | 1012.7 |
| 20260905084603 | 71 | 130 | 0.0 | 0.0 | 0.00 | 0.22 | 0.01 | 93 | 1012.7 |
| 20260905084103 | 71 | 130 | 0.0 | 0.0 | 0.00 | 0.22 | 0.01 | 93 | 1012.4 |
| 20260905083603 | 71 | 130 | 0.0 | 0.0 | 0.00 | 0.22 | 0.01 | 93 | 1012.1 |
| 20260905083104 | 71 | 130 | 0.0 | 0.0 | 0.00 | 0.22 | 0.01 | 93 | 1011.9 |
| 20260905082103 | 71 | 130 | 0.0 | 0.0 | 0.00 | 0.22 | 0.01 | 93 | 1011.8 |
| 20260905081603 | 71 | 130 | 0.0 | 0.0 | 0.00 | 0.22 | 0.01 | 93 | 1011.9 |
| 20260905081103 | 71 | 130 | 0.0 | 0.0 | 0.00 | 0.22 | 0.01 | 93 | 1012.1 |
| 20260905080603 | 71 | 130 | 0.0 | 0.0 | 0.00 | 0.22 | 0.01 | 93 | 1012.2 |
| 20260905080104 | 71 | 130 | 0.0 | 0.0 | 0.00 | 0.22 | 0.01 | 93 | 1012.3 |
| 20260905075604 | 71 | 130 | 0.0 | 0.0 | 0.00 | 0.22 | 0.01 | 93 | 1012.3 |
| 20260905074604 | 72 | 130 | 0.0 | 0.0 | 0.00 | 0.22 | 0.01 | 93 | 1012.2 |
| 20260905074103 | 72 | 130 | 0.0 | 0.0 | 0.00 | 0.22 | 0.01 | 93 | 1012.3 |